Weather Roundup
Issued by NWS Springfield, MO

Home | Current Version | Previous Version | Text Only | Print | Product List | Glossary On
Versions: 1 2 3 4 5 6 7 8 9 10 11 12 13 14 15 16 17 18 19 20 21 22 23 24 25 26 27 28 29 30 31 32 33 34 35 36 37 38 39 40 41 42 43 44 45 46 47 48 49 50
000
NZUS99 KSGF 181807
HRRSGF

HOURLY WEATHER
NATIONAL WEATHER SERVICE SPRINGFIELD MO
1200 PM CST SAT NOV 18 2017

......SGF CWA......

CITY           SKY/WX    TMP DP  RH WIND       PRES   REMARKS
SPRINGFIELD    LGT RAIN  45  42  89 NW25G43   29.81R
6HR MIN TEMP:  44; 6HR MAX TEMP:  70; 6HR PCP:  0.03;

JOPLIN         LGT RAIN  45  43  93 NW23G30   29.93R
6HR MIN TEMP:  44; 6HR MAX TEMP:  61; 6HR PCP:  0.08;

WEST PLAINS    CLOUDY    51  44  77 NW22G41   29.64R
6HR MIN TEMP:  51; 6HR MAX TEMP:  74; 6HR PCP: TRACE;

ROLLA          LGT RAIN  43  42  97 NW18G36   29.64R FOG
6HR MIN TEMP:  43; 6HR MAX TEMP:  69; 6HR PCP:  0.03;

OSAGE BEACH    RAIN      43  41  93 NW13G23   29.77R
BRANSON        LGT RAIN  46  45  93 NW20G35   29.78R FOG

......SURROUNDING SGF CWA......

CITY           SKY/WX    TMP DP  RH WIND       PRES   REMARKS
CHANUTE        CLOUDY    47  35  63 NW23G33   29.98R
PARSONS        CLOUDY    50  40  68 NW17G26   30.00R
COFFEYVILLE    CLOUDY    49  41  74 NW21G28   30.00R
EMPORIA        CLOUDY    46  32  58 NW25G39   30.02R
GROVE OK       LGT RAIN  46  45  93 NW23G29     N/A
ROGERS AR      LGT RAIN  45  43  93 NW22G28   29.89R FOG
SILOAM SPRINGS LGT RAIN  46  43  89 NW22G30   29.92R FOG
HARRISON AR    CLOUDY    50  44  80 NW25G37   29.75R
NEAR YELLVILLE LGT RAIN  53  49  86 NW16G31   29.72R

......KANSAS AND MISSOURI......

CITY           SKY/WX    TMP DP  RH WIND       PRES   REMARKS
KANSAS CTY INT CLOUDY    44  36  73 N18G28    29.90R
DOWNTOWN KC    CLOUDY    45  36  70 NW20G26   29.90R
COLUMBIA       LGT RAIN  43  40  89 NW24G37   29.71R FOG
SEDALIA        LGT RAIN  43  42  97 NW17G28   29.82R
ST JOSEPH      CLOUDY    45  35  68 NW22G28   29.92R
ST LOUIS       CLOUDY    46  42  86 NW26G36   29.50R
SPIRIT OF STL  CLOUDY    47  41  80 NW15G31   29.54R
KIRKSVILLE     CLOUDY    41  39  93 NW17G30   29.71S
WICHITA        CLOUDY    49  37  63 NW20G26   30.10R
TOPEKA         CLOUDY    48  29  47 NW24G41   29.97R
OLATHE         LGT RAIN  43  36  76 NW21G32   29.91R

......TENNESSEE......

CITY           SKY/WX    TMP DP  RH WIND       PRES   REMARKS
MEMPHIS        PTSUNNY   73  64  73 SW18G28   29.58F
NASHVILLE      CLOUDY    66  59  78 S20G31    29.60F

......ARKANSAS.......

CITY           SKY/WX    TMP DP  RH WIND       PRES   REMARKS
FAYETTEVILLE   CLOUDY    46  44  93 NW20G33   29.88R
FT SMITH       CLOUDY    56  45  66 NW25G40   29.87R
LITTLE ROCK    PTSUNNY   77  63  61 W20G25    29.59F

......OKLAHOMA.......

CITY           SKY/WX    TMP DP  RH WIND       PRES   REMARKS
TULSA          CLOUDY    52  37  56 N25G43    30.02R
PONCA CITY     CLOUDY    49  35  58 NW29G41   30.11R
MCALESTER      LGT RAIN  60  42  51 NW28G38   29.98R
OKLAHOMA CITY  PTSUNNY   50  37  61 N36G43    30.10R

......IOWA............

CITY           SKY/WX    TMP DP  RH WIND       PRES   REMARKS
DES MOINES     PTSUNNY   42  31  64 NW18      29.83R
QUAD CITIES    CLOUDY    40  36  86 N14G24    29.64R WCI  32

......ILLINOIS........

CITY           SKY/WX    TMP DP  RH WIND       PRES   REMARKS
QUINCY         LGT RAIN  40  37  89 N22G37    29.62R WCI  30
CHICAGO        LGT RAIN  37  34  89 N16G25    29.47S FOG     WCI  28




USA.gov is the U.S. government's official web portal to all federal, state and local government web resources and services.